#timestamp,LO_Frequency,Hit,StdDev 
1545642015.5,286046996.5,N
1545642035.3,286046999.5,N
1545642055.1,286046997.3,N
1545642075.9,286046999.6,N
1545642095.7,286046995.4,N
1545642115.6,286046997.6,N
1545642135.4,286046997.3,N
1545642155.2,286046995.5,N
1545642175.1,286046997.9,N
1545642176.0,286046997.9,N
1545642195.8,286046993.4,Y
1545642215.7,286046995.6,P
1545642235.5,286046993.8,P
1545642255.3,286046993.8,P
1545642275.2,286046995.2,N
1545642295.0,286046997.8,N
1545642295.9,286046997.8,N
1545642315.8,286046997.4,N
1545642335.6,286046998.0,N
1545642355.4,286046999.2,N
1545642375.3,286046999.0,N
1545642395.1,286047002.2,N
1545642445.9,286047002.7,E
1545642455.8,286046999.8,N
1545642475.6,286046999.6,P
1545642495.5,286046996.8,P
1545642515.3,286046994.9,Y
1545642535.1,286046996.8,P
1545642555.9,286046997.0,P
1545642575.7,286046996.9,P
1545642595.6,286046996.9,Y
1545642615.4,286047000.5,P
1545642635.2,286046999.8,N
1545642655.1,286047000.2,N
1545642656.0,286047000.2,N
1545642675.8,286047002.3,N
1545642695.7,286047001.9,N
1545642715.5,286046999.9,N
1545642735.3,286047000.2,N
1545642755.2,286047000.9,N
1545642775.0,286046998.6,N
1545642775.9,286046998.6,N
1545642795.7,286047000.4,N
1545642815.6,286046998.5,N
1545642835.4,286047000.5,N
1545642855.3,286046998.6,N
1545642875.1,286046998.1,N
1545642876.0,286046998.1,N
1545642895.8,286046999.0,N
1545642915.7,286046998.6,N
1545642935.5,286047000.1,N
1545642955.4,286047002.7,N
1545642975.2,286047000.3,N
1545642995.0,286046999.7,N
1545642995.9,286046999.7,N
1545643015.8,286046998.3,N
1545643035.6,286046999.9,N
1545643055.4,286047003.5,N
1545643075.3,286047001.6,N
1545643095.1,286047000.9,N
1545643115.9,286047000.6,N
1545643135.7,286046999.2,N
1545643155.5,286046999.8,N
1545643175.4,286047001.1,N
1545643195.2,286047000.3,N
1545643215.0,286047000.7,N
1545643215.9,286047000.7,N
1545643235.8,286047001.2,N
1545643255.6,286047000.0,N
1545643275.5,286047002.5,N
1545643295.3,286047002.0,N
1545643315.1,286047002.1,N
1545643335.9,286047003.2,N
1545643355.7,286047002.6,N
1545643375.6,286047002.6,N
1545643395.4,286047000.1,N
1545643415.2,286046999.8,N
1545643435.1,286047001.3,N
1545643436.0,286047001.3,N
1545643455.8,286047000.4,N
1545643475.6,286047002.4,N
1545643495.5,286047002.6,N
1545643515.3,286047001.0,N
1545643535.2,286047002.5,N
1545643555.9,286047002.6,N
1545643575.7,286047002.0,N
1545643595.6,286046999.9,N
1545643615.4,286047000.1,N
1545643635.2,286046998.8,N
1545643655.1,286046998.7,N
1545643656.0,286046998.7,N
1545643675.8,286047000.8,N
1545643695.7,286046998.6,N
1545643715.5,286047001.1,N
1545643735.3,286047004.3,Y
1545643755.2,286046999.9,P
1545643775.0,286046999.9,N
1545643775.9,286046999.9,N
1545643795.8,286046998.6,N
1545643815.6,286046998.9,N
1545643835.4,286047000.8,N
1545643855.3,286047000.4,N
1545643875.1,286046998.3,N
1545643895.8,286046999.1,N
1545643915.7,286046999.5,N
1545643935.5,286046998.5,N
1545643955.4,286046998.7,N
1545643975.2,286046998.9,N
1545643995.0,286046998.7,N
1545643995.9,286046998.7,N
1545644015.8,286046998.2,N
1545644035.6,286047000.8,N
1545644055.4,286047000.3,N
1545644075.3,286047002.3,N
1545644095.1,286047000.8,N
1545644115.9,286047000.7,N
1545644135.7,286047000.3,N
1545644155.5,286047000.7,N
1545644175.4,286047000.5,N
1545644195.2,286047000.0,N
1545644215.0,286047005.9,Y
1545644216.0,286047005.9,P
1545644235.8,286047005.9,N
1545644255.6,286047002.7,N
1545644275.5,286047000.4,N
1545644295.3,286047000.0,N
1545644315.1,286046999.5,N
1545644335.9,286046996.7,N
1545644355.7,286046995.1,N
1545644375.6,286046999.5,N
1545644395.4,286046997.4,N
1545644415.2,286046998.3,N
1545644435.1,286046999.4,N
1545644436.0,286046999.4,N
1545644455.8,286046997.4,N
1545644475.6,286046998.4,N
1545644495.5,286046998.3,N
1545644515.3,286046999.1,N
1545644535.2,286046999.5,N
1545644555.9,286046998.6,N
1545644575.7,286046999.4,N
1545644595.6,286046999.5,N
1545644615.4,286046998.2,N
1545644635.2,286046999.5,N
1545644655.1,286046994.9,N
1545644656.0,286046994.9,N
1545644675.8,286046997.3,N
1545644695.7,286046999.5,N
1545644715.5,286046996.5,N
1545644735.3,286047001.2,N
1545644755.2,286047000.4,N
1545644775.0,286047002.5,N
1545644775.9,286047002.5,N
1545644795.7,286047001.7,N
1545644815.6,286047004.1,N
1545644835.4,286047001.6,N
1545644855.3,286047001.4,N
1545644875.1,286047000.2,N
1545644876.0,286047000.2,N
1545644895.8,286047000.9,N
1545644915.7,286046998.3,N
1545644935.5,286046999.0,N
1545644955.4,286046996.6,N
1545644975.2,286046999.3,N
1545644995.0,286046998.8,N
1545644995.9,286046998.8,N
1545645015.8,286046999.4,N
1545645035.6,286046998.6,N
1545645055.4,286046998.5,N
1545645075.3,286047000.9,N
1545645095.1,286046999.7,N
1545645115.9,286047003.7,N
1545645135.7,286047004.7,N
1545645155.5,286047001.8,N
1545645175.4,286047003.9,N
1545645195.2,286047003.8,N
1545645215.0,286047003.7,N
1545645215.9,286047003.7,N
1545645235.8,286047004.2,N
1545645255.6,286047002.5,N
1545645275.5,286047004.4,N
1545645295.3,286047000.0,N
1545645315.1,286047000.3,N
1545645335.9,286047003.7,N
1545645355.7,286047003.2,N
1545645375.5,286047003.6,N
1545645395.4,286047001.9,N
1545645415.2,286047002.5,N
1545645435.1,286047003.9,N
1545645436.0,286047003.9,N
1545645455.8,286047001.7,N
1545645475.6,286047001.9,N
1545645495.5,286047004.2,N
1545645515.3,286047001.6,N
1545645535.2,286047002.7,N
1545645555.9,286047001.4,N
1545645575.7,286047000.9,N
1545645595.6,286047002.3,N
